QPF
0.02 0.00 0.00 0.00 0.00 0.00 0.00 0.00 0.00 0.00 0.00 0.00 0.00 0.00 0.00 0.00 0.00 0.00 0.00 0.01 0.01 0.00 0.00 0.01 0.01 0.01 0.00 0.00 0.00 0.00 0.01 0.02 0.01
0.02 0.00 0.00 0.00 0.00 0.00 0.00 0.00 0.00 0.00 0.00 0.00 0.00 0.00 0.00 0.00 0.00 0.01 0.01 0.01 0.00 0.00 0.00 0.00 0.01 0.01 0.01 0.01 0.02 0.02 0.01 0.01 0.00
0.01 0.00 0.00 0.00 0.00 0.00 0.00 0.00 0.00 0.00 0.00 0.00 0.00 0.00 0.00 0.00 0.00 0.00 0.00 0.00 0.00 0.00 0.00 0.00 0.00 0.00 0.00 0.00 0.02 0.02 0.01 0.01 0.00
0.00 0.00 0.00 0.00 0.00 0.00 0.00 0.00 0.00 0.00 0.00 0.00 0.00 0.00 0.00 0.00 0.00 0.00 0.00 0.00 0.00 0.00 0.00 0.00 0.00 0.00 0.00 0.00 0.00 0.00 0.00 0.00 0.00
0.01 0.00 0.00 0.00 0.00 0.00 0.00 0.00 0.00 0.00 0.00 0.00 0.00 0.00 0.00 0.00 0.00 0.00 0.00 0.00 0.00 0.00 0.00 0.00 0.00 0.00 0.00 0.00 0.00 0.00 0.00 0.00 0.00
0.00 0.00 0.00 0.00 0.00 0.00 0.00 0.00 0.00 0.00 0.00 0.00 0.00 0.00 0.00 0.00 0.00 0.00 0.00 0.00 0.00 0.00 0.00 0.00 0.00 0.00 0.00 0.00 0.00 0.00 0.00 0.00 0.00
0.00 0.00 0.00 0.00 0.00 0.00 0.00 0.00 0.00 0.00 0.00 0.00 0.00 0.00 0.00 0.00 0.00 0.00 0.00 0.00 0.00 0.00 0.00 0.00 0.00 0.00 0.00 0.00 0.00 0.00 0.00 0.00 0.00
0.00 0.00 0.00 0.00 0.00 0.00 0.00 0.00 0.00 0.00 0.00 0.00 0.00 0.00 0.00 0.00 0.00 0.00 0.00 0.00 0.00 0.00 0.00 0.00 0.00 0.00 0.00 0.00 0.00 0.00 0.00 0.00 0.00
0.00 0.00 0.00 0.00 0.00 0.00 0.00 0.00 0.00 0.00 0.00 0.00 0.00 0.00 0.00 0.00 0.00 0.00 0.00 0.00 0.00 0.00 0.00 0.00 0.00 0.00 0.00 0.00 0.00 0.00 0.00 0.00 0.00
0.00 0.00 0.00 0.00 0.00 0.00 0.00 0.00 0.00 0.00 0.00 0.00 0.00 0.00 0.00 0.00 0.00 0.00 0.00 0.00 0.00 0.00 0.00 0.00 0.00 0.00 0.00 0.00 0.00 0.00 0.00 0.00 0.00
0.00 0.00 0.00 0.00 0.00 0.00 0.00 0.00 0.00 0.00 0.00 0.00 0.00 0.00 0.00 0.00 0.00 0.00 0.00 0.00 0.00 0.00 0.00 0.00 0.00 0.00 0.00 0.00 0.00 0.00 0.00 0.00 0.00
0.00 0.00 0.00 0.00 0.00 0.00 0.00 0.00 0.00 0.00 0.00 0.00 0.00 0.00 0.00 0.00 0.00 0.00 0.00 0.00 0.00 0.00 0.00 0.00 0.00 0.00 0.00 0.00 0.00 0.00 0.00 0.00 0.00
0.00 0.00 0.00 0.00 0.00 0.00 0.00 0.00 0.00 0.00 0.00 0.00 0.00 0.00 0.00 0.00 0.00 0.00 0.00 0.00 0.00 0.00 0.00 0.00 0.00 0.00 0.00 0.00 0.00 0.00 0.00 0.00 0.00
0.00 0.00 0.00 0.00 0.00 0.00 0.00 0.00 0.00 0.00 0.00 0.00 0.00 0.00 0.00 0.00 0.00 0.00 0.00 0.00 0.00 0.00 0.00 0.00 0.00 0.01 0.00 0.00 0.00 0.01 0.01 0.00 0.00
0.00 0.00 0.00 0.00 0.00 0.00 0.00 0.00 0.00 0.00 0.00 0.00 0.00 0.00 0.00 0.00 0.00 0.00 0.00 0.00 0.00 0.00 0.00 0.00 0.00 0.00 0.00 0.00 0.00 0.00 0.01 0.03 0.00
0.00 0.00 0.00 0.00 0.00 0.00 0.00 0.00 0.00 0.00 0.00 0.00 0.00 0.00 0.00 0.00 0.00 0.00 0.00 0.00 0.00 0.00 0.00 0.00 0.00 0.00 0.00 0.00 0.00 0.00 0.00 0.02 0.06
0.00 0.00 0.00 0.00 0.00 0.00 0.00 0.00 0.00 0.00 0.00 0.00 0.00 0.00 0.00 0.00 0.00 0.00 0.00 0.00 0.00 0.00 0.00 0.00 0.00 0.00 0.00 0.00 0.00 0.00 0.00 0.01 0.05
0.00 0.00 0.00 0.00 0.00 0.00 0.00 0.00 0.00 0.00 0.00 0.00 0.00 0.00 0.00 0.00 0.00 0.00 0.00 0.00 0.00 0.00 0.00 0.00 0.00 0.00 0.00 0.00 0.00 0.00 0.00 0.02 0.04
0.00 0.00 0.00 0.00 0.00 0.00 0.00 0.00 0.00 0.00 0.00 0.00 0.00 0.00 0.00 0.00 0.00 0.00 0.00 0.00 0.00 0.00 0.00 0.00 0.00 0.00 0.00 0.00 0.00 0.00 0.00 0.01 0.03
0.00 0.00 0.00 0.00 0.00 0.00 0.00 0.00 0.00 0.01 0.01 0.01 0.00 0.00 0.00 0.00 0.00 0.00 0.00 0.00 0.00 0.00 0.00 0.00 0.00 0.00 0.00 0.00 0.00 0.00 0.00 0.00 0.01
MSLP
1020.30 1020.70 1020.95 1021.08 1021.11 1021.14 1021.22 1021.28 1021.25 1021.19 1021.17 1021.11 1021.23 1021.31 1021.29 1021.03 1020.41 1020.52 1020.57 1020.72 1020.99 1021.03 1021.04 1020.96 1020.93 1020.76 1020.64 1020.63 1020.57 1020.37 1020.32 1020.29 1020.29
1020.60 1020.98 1021.20 1021.30 1021.30 1021.39 1021.48 1021.53 1021.45 1021.50 1021.49 1021.39 1021.52 1021.55 1021.30 1020.54 1020.57 1020.53 1020.80 1021.06 1021.29 1021.27 1021.36 1021.29 1021.18 1021.17 1021.00 1020.84 1020.74 1020.71 1020.69 1020.66 1020.73
1020.89 1021.16 1021.34 1021.42 1021.43 1021.48 1021.52 1021.58 1021.61 1021.66 1021.69 1021.71 1021.80 1021.77 1021.43 1020.76 1020.77 1020.89 1020.90 1021.63 1021.66 1021.67 1021.69 1021.69 1021.66 1021.54 1021.45 1021.29 1021.20 1021.07 1021.00 1021.04 1021.05
1020.93 1021.27 1021.47 1021.53 1021.61 1021.68 1021.71 1021.79 1021.78 1021.90 1021.93 1022.01 1021.98 1021.95 1021.74 1020.94 1021.13 1021.17 1021.09 1021.95 1021.91 1022.00 1022.02 1021.98 1021.97 1021.96 1021.87 1021.77 1021.61 1021.47 1021.42 1021.36 1021.29
1021.17 1021.43 1021.63 1021.66 1021.73 1021.87 1021.90 1021.97 1022.01 1022.08 1022.08 1022.20 1022.19 1022.11 1021.96 1021.14 1021.35 1021.27 1021.60 1022.06 1022.07 1022.13 1022.17 1022.20 1022.23 1022.14 1022.06 1021.99 1021.93 1021.80 1021.68 1021.49 1021.29
1021.11 1021.59 1021.73 1021.80 1021.86 1021.98 1022.00 1022.05 1022.18 1022.23 1022.24 1022.30 1022.28 1022.06 1021.18 1021.13 1021.16 1021.22 1022.05 1022.12 1022.14 1022.22 1022.29 1022.31 1022.35 1022.28 1022.26 1022.17 1022.00 1021.84 1021.73 1021.68 1021.68
1020.91 1021.54 1021.87 1021.92 1022.00 1022.09 1022.05 1022.13 1022.21 1022.14 1021.44 1021.55 1022.04 1021.28 1021.23 1021.17 1021.17 1021.18 1021.90 1022.07 1022.04 1022.16 1022.26 1022.29 1022.36 1022.35 1022.30 1022.30 1022.22 1022.14 1022.05 1021.98 1021.97
1021.01 1021.07 1021.35 1021.33 1021.89 1021.36 1021.62 1021.60 1021.36 1021.36 1021.45 1021.40 1021.26 1021.37 1021.30 1021.01 1021.09 1021.23 1021.81 1021.96 1021.90 1021.87 1022.10 1022.17 1022.25 1022.34 1022.32 1022.32 1022.33 1022.33 1022.35 1022.33 1022.34
1020.65 1020.77 1020.94 1021.13 1021.02 1021.07 1021.19 1021.07 1021.12 1021.26 1021.38 1021.28 1021.23 1021.24 1021.13 1020.92 1020.93 1020.94 1021.60 1021.84 1021.80 1021.70 1021.69 1021.95 1022.06 1022.21 1022.25 1022.31 1022.37 1022.43 1022.49 1022.44 1022.45
1020.54 1020.70 1020.80 1020.88 1020.95 1020.98 1020.95 1020.98 1020.88 1020.90 1020.91 1020.97 1021.05 1020.95 1020.82 1020.77 1020.77 1020.77 1021.20 1021.55 1021.68 1021.65 1021.51 1021.53 1021.67 1021.90 1022.04 1022.19 1022.25 1022.30 1022.35 1022.36 1022.39
1020.49 1020.55 1020.66 1020.71 1020.82 1020.77 1020.79 1020.72 1020.74 1020.70 1020.71 1020.64 1020.63 1020.64 1020.56 1020.59 1020.56 1020.58 1020.58 1021.08 1021.30 1021.37 1021.31 1021.28 1021.22 1021.43 1021.61 1021.79 1021.90 1022.09 1022.20 1022.27 1022.33
1020.37 1020.34 1020.33 1020.37 1020.45 1020.59 1020.59 1020.61 1020.68 1020.60 1020.53 1020.49 1020.22 1020.18 1020.14 1020.14 1020.29 1020.35 1020.27 1020.28 1020.74 1020.89 1020.91 1020.93 1020.96 1020.98 1021.12 1021.29 1021.37 1021.60 1021.83 1022.01 1022.12
1020.07 1020.11 1020.08 1020.09 1020.19 1020.30 1020.26 1020.24 1020.29 1020.25 1020.13 1019.93 1019.77 1019.80 1019.72 1019.79 1019.72 1019.74 1019.78 1019.85 1019.90 1020.02 1020.34 1020.43 1020.50 1020.53 1020.61 1020.73 1020.83 1020.98 1021.27 1021.44 1021.60
1019.69 1019.67 1019.68 1019.76 1019.89 1019.90 1019.95 1019.91 1019.94 1019.79 1019.69 1019.70 1019.64 1019.45 1019.39 1019.22 1019.28 1019.18 1019.12 1019.23 1019.50 1019.38 1019.36 1019.90 1020.18 1020.23 1020.28 1020.26 1020.22 1020.31 1020.53 1020.90 1021.11
1019.29 1019.28 1019.32 1019.39 1019.45 1019.55 1019.52 1019.62 1019.57 1019.68 1019.56 1019.45 1019.37 1019.10 1018.97 1018.89 1018.72 1018.45 1018.40 1018.48 1018.77 1019.10 1019.19 1019.22 1019.26 1019.69 1019.82 1019.79 1019.80 1019.86 1019.93 1020.23 1020.59
1018.99 1018.96 1018.96 1019.17 1019.28 1019.17 1019.19 1019.32 1019.45 1019.41 1019.39 1019.44 1018.93 1018.55 1018.54 1018.44 1018.22 1018.14 1017.78 1017.97 1018.52 1018.94 1019.05 1019.02 1018.97 1018.82 1019.14 1019.30 1019.33 1019.29 1019.36 1019.44 1019.75
1018.77 1018.83 1018.86 1018.89 1019.09 1019.07 1019.16 1019.28 1019.30 1019.32 1019.31 1019.13 1019.04 1018.60 1017.95 1017.55 1017.91 1017.94 1018.16 1018.31 1018.41 1018.74 1018.92 1018.92 1018.93 1018.94 1018.76 1018.75 1019.09 1019.19 1019.21 1019.09 1019.07
1019.16 1019.10 1019.05 1019.05 1019.05 1019.13 1019.09 1019.06 1019.12 1019.06 1018.93 1019.22 1019.04 1018.68 1018.07 1018.18 1018.23 1018.21 1018.15 1018.43 1018.56 1018.78 1018.85 1018.89 1019.00 1018.98 1018.89 1019.09 1019.08 1019.07 1019.13 1019.12 1018.85
1019.40 1019.37 1019.27 1019.09 1019.11 1019.10 1019.08 1019.12 1019.20 1019.21 1019.00 1019.06 1019.10 1019.00 1019.29 1019.13 1018.83 1018.55 1018.38 1018.66 1018.47 1018.50 1018.31 1018.55 1018.74 1018.95 1018.97 1019.21 1019.33 1019.38 1019.36 1019.08 1018.81
1019.72 1019.62 1019.49 1019.30 1019.14 1019.15 1019.03 1018.94 1018.99 1019.08 1019.02 1018.78 1018.81 1018.98 1019.13 1019.47 1019.39 1018.94 1018.64 1018.81 1018.46 1018.29 1018.27 1018.45 1018.72 1019.14 1019.36 1019.37 1019.50 1019.72 1019.55 1019.14 1018.75
Thickness
5725 5721 5718 5716 5715 5714 5712 5711 5711 5709 5708 5708 5705 5704 5703 5703 5704 5702 5699 5696 5692 5690 5688 5686 5684 5683 5682 5681 5680 5679 5678 5676 5673
5721 5717 5715 5713 5712 5710 5708 5708 5708 5706 5705 5705 5702 5700 5700 5702 5701 5699 5695 5691 5687 5686 5683 5681 5679 5677 5677 5676 5675 5674 5672 5670 5667
5718 5715 5712 5710 5710 5708 5707 5706 5704 5703 5702 5700 5698 5696 5697 5698 5696 5693 5691 5684 5681 5680 5677 5675 5673 5672 5671 5670 5668 5668 5666 5664 5662
5716 5712 5710 5708 5707 5705 5704 5702 5701 5699 5698 5695 5694 5693 5693 5694 5691 5688 5687 5679 5676 5674 5671 5670 5667 5666 5664 5663 5662 5661 5660 5659 5657
5713 5710 5707 5706 5704 5702 5700 5698 5697 5696 5695 5692 5690 5689 5688 5690 5686 5685 5680 5675 5672 5670 5667 5665 5662 5661 5660 5658 5656 5655 5654 5654 5654
5710 5706 5705 5703 5701 5699 5697 5696 5694 5693 5691 5689 5688 5688 5689 5687 5685 5683 5676 5672 5669 5665 5662 5660 5657 5656 5654 5652 5651 5651 5650 5648 5646
5709 5704 5702 5700 5699 5698 5696 5694 5692 5691 5692 5689 5685 5687 5686 5684 5681 5679 5673 5669 5666 5662 5659 5656 5653 5651 5649 5646 5645 5643 5642 5641 5639
5706 5705 5702 5701 5698 5699 5697 5695 5695 5693 5690 5688 5687 5683 5682 5681 5678 5675 5671 5667 5663 5660 5656 5653 5650 5646 5644 5641 5638 5637 5635 5633 5631
5706 5704 5702 5701 5700 5698 5696 5696 5694 5691 5688 5686 5684 5682 5680 5679 5676 5674 5668 5663 5660 5657 5654 5649 5646 5641 5638 5635 5633 5631 5629 5627 5625
5704 5702 5701 5699 5697 5696 5694 5693 5692 5690 5688 5685 5682 5680 5678 5675 5673 5670 5667 5661 5656 5652 5650 5646 5642 5638 5635 5631 5628 5626 5624 5622 5619
5701 5700 5698 5697 5695 5694 5692 5690 5688 5687 5685 5683 5681 5678 5675 5672 5670 5667 5664 5659 5654 5649 5646 5643 5640 5635 5631 5628 5625 5621 5618 5616 5614
5697 5696 5696 5695 5693 5691 5689 5687 5684 5683 5682 5680 5679 5676 5673 5670 5667 5663 5660 5657 5652 5648 5644 5640 5636 5632 5629 5625 5622 5618 5614 5611 5608
5694 5693 5692 5692 5691 5689 5687 5685 5683 5682 5680 5679 5678 5674 5671 5667 5665 5661 5657 5654 5650 5647 5642 5637 5634 5630 5626 5622 5619 5616 5612 5608 5605
5692 5691 5690 5689 5688 5686 5684 5683 5681 5679 5678 5675 5673 5670 5668 5665 5662 5658 5655 5651 5645 5643 5640 5635 5630 5626 5622 5619 5617 5614 5610 5605 5600
5690 5689 5687 5686 5685 5683 5682 5680 5679 5674 5672 5670 5668 5667 5665 5661 5658 5657 5653 5649 5643 5637 5634 5631 5628 5623 5619 5616 5613 5610 5607 5601 5597
5686 5685 5684 5681 5680 5681 5679 5676 5672 5669 5668 5662 5664 5664 5662 5658 5656 5652 5650 5645 5638 5632 5627 5624 5622 5620 5617 5614 5610 5607 5603 5598 5593
5681 5680 5679 5677 5675 5674 5672 5669 5665 5663 5661 5657 5654 5650 5656 5658 5652 5647 5641 5637 5632 5625 5620 5617 5614 5612 5611 5608 5603 5599 5595 5592 5588
5672 5671 5671 5670 5668 5667 5666 5664 5660 5656 5657 5651 5647 5641 5644 5643 5643 5639 5635 5628 5624 5618 5614 5610 5606 5604 5602 5597 5594 5591 5586 5582 5580
5662 5662 5661 5661 5660 5659 5658 5656 5653 5650 5647 5644 5641 5638 5631 5626 5624 5629 5625 5619 5617 5612 5608 5604 5601 5596 5592 5587 5582 5579 5575 5573 5571
5652 5652 5651 5651 5651 5650 5650 5649 5646 5643 5640 5639 5635 5630 5626 5618 5614 5613 5615 5611 5610 5607 5603 5598 5594 5587 5581 5577 5571 5567 5564 5562 5561